Location: *
(49.0044°N, 9.5056°E)
Time: 00:53:19
(UTC+00:00)

MetOp-B - Pass Details

Date: 22 September 2019
Orbit: 819 x 821 km, 98.7° (Epoch: 22 October)

Event Time Altitude Azimuth Distance (km) Brightness Sun altitude
Exits shadow 19:30:28 42° 92° (E) 1,156 4.5 -21.3°
Maximum altitude 19:31:16 45° 67° (ENE) 1,105 4.5 -21.4°
Drops below altitude 10° 19:36:22 10° 356° (N) 2,428 7.0 -22.2°
Sets 19:38:48 0° 350° (N) 3,365 7.9 -22.5°
